Tracking 25934 objects as of 11-Aug-2022
HD Live streaming from Space Station
objects crossing your sky now

SL-8 R/B

Track SL-8 R/B now!
10-day predictions


NORAD ID: 11379
Int'l Code: 1979-046B
Perigee: 964.6 km
Apogee: 995.2 km
Inclination: 82.9 °
Period: 104.5 minutes
Semi major axis: 7350 km
RCS: 4.2164 m2 (large)
Launch date: May 31, 1979
Source: Commonwealth of Independent States (former USSR) (CIS)
Launch site: PLESETSK MISSILE AND SPACE COMPLEX (PKMTR)

Note: This is a ROCKET BODY
aabbcc
Your satellite tracking list
Your tracking list is empty




NASA's NSSDC Master Catalog

Two Line Element Set (TLE):
1 11379U 79046B   22222.31025941  .00000043  00000-0  27853-4 0  9998
2 11379  82.9472 349.6463 0020855 341.3447  45.5257 13.77505854132397
Source of the keplerian elements: AFSPC